owner,sensor,date,latitude,longitude,vertical_datum,wind_speed,wind_to_direction,wind_speed_of_gust,qcFlag 
LUMCON,ioos:station:LUMCON:105:1,2004-09-01T00:00:00Z,29.1874,-90.6654,1.0,3.1,250.0,4.1,'11111222,11111222,11111222' 
LUMCON,ioos:station:LUMCON:105:1,2004-09-01T01:00:00Z,29.1874,-90.6654,1.0,3.1,260.0,4.6,'11111222,11111222,11111222' 
LUMCON,ioos:station:LUMCON:105:1,2004-09-01T02:00:00Z,29.1874,-90.6654,1.0,4.1,320.0,5.1,'11111222,11111222,11111222' 
LUMCON,ioos:station:LUMCON:105:1,2004-09-01T03:00:00Z,29.1874,-90.6654,1.0,3.6,320.0,4.6,'11111222,11111222,11111222' 
LUMCON,ioos:station:LUMCON:105:1,2004-09-01T04:00:00Z,29.1874,-90.6654,1.0,4.1,330.0,4.6,'11111222,11111222,11111222' 
LUMCON,ioos:station:LUMCON:105:1,2004-09-01T05:00:00Z,29.1874,-90.6654,1.0,3.6,320.0,4.1,'11111222,11111222,11111222' 
LUMCON,ioos:station:LUMCON:105:1,2004-09-01T06:00:00Z,29.1874,-90.6654,1.0,2.6,330.0,3.1,'11111222,11111222,11111222' 
LUMCON,ioos:station:LUMCON:105:1,2004-09-01T07:00:00Z,29.1874,-90.6654,1.0,3.1,0.0,3.6,'11111222,11111222,11111222' 
LUMCON,ioos:station:LUMCON:105:1,2004-09-01T09:00:00Z,29.1874,-90.6654,1.0,2.1,330.0,2.6,'11111222,11111222,11111222' 
LUMCON,ioos:station:LUMCON:105:1,2004-09-01T10:00:00Z,29.1874,-90.6654,1.0,2.1,320.0,2.6,'11111222,11111222,11111222' 
LUMCON,ioos:station:LUMCON:105:1,2004-09-01T11:00:00Z,29.1874,-90.6654,1.0,2.6,350.0,3.1,'11111222,11111222,11111222' 
LUMCON,ioos:station:LUMCON:105:1,2004-09-01T12:00:00Z,29.1874,-90.6654,1.0,2.1,330.0,2.6,'11111222,11111222,11111222' 
LUMCON,ioos:station:LUMCON:105:1,2004-09-01T13:00:00Z,29.1874,-90.6654,1.0,2.1,360.0,2.6,'11111222,11144222,11111222' 
LUMCON,ioos:station:LUMCON:105:1,2004-09-01T14:00:00Z,29.1874,-90.6654,1.0,2.6,0.0,3.1,'11111222,11111222,11111222' 
LUMCON,ioos:station:LUMCON:105:1,2004-09-01T15:00:00Z,29.1874,-90.6654,1.0,2.1,340.0,3.1,'11111222,11111222,11111222' 
LUMCON,ioos:station:LUMCON:105:1,2004-09-01T16:00:00Z,29.1874,-90.6654,1.0,1.0,360.0,2.1,'11111222,11144222,11111222' 
LUMCON,ioos:station:LUMCON:105:1,2004-09-01T17:00:00Z,29.1874,-90.6654,1.0,0.5,320.0,1.5,'11111222,11111222,11111222' 
LUMCON,ioos:station:LUMCON:105:1,2004-09-01T18:00:00Z,29.1874,-90.6654,1.0,2.1,160.0,2.6,'11111222,11111222,11111222' 
LUMCON,ioos:station:LUMCON:105:1,2004-09-01T19:00:00Z,29.1874,-90.6654,1.0,2.6,190.0,3.6,'11111222,11111222,11111222' 
LUMCON,ioos:station:LUMCON:105:1,2004-09-01T20:00:00Z,29.1874,-90.6654,1.0,2.6,190.0,4.1,'11111222,11111222,11111222' 
LUMCON,ioos:station:LUMCON:105:1,2004-09-01T21:00:00Z,29.1874,-90.6654,1.0,3.6,250.0,4.6,'11111222,11111222,11111222' 
LUMCON,ioos:station:LUMCON:105:1,2004-09-01T22:00:00Z,29.1874,-90.6654,1.0,3.1,260.0,4.1,'11111222,11111222,11111222' 
LUMCON,ioos:station:LUMCON:105:1,2004-09-01T23:00:00Z,29.1874,-90.6654,1.0,3.1,260.0,4.1,'11111222,11111222,11111222' 
LUMCON,ioos:station:LUMCON:105:1,2004-09-02T00:00:00Z,29.1874,-90.6654,1.0,2.6,280.0,3.1,'11111222,11111222,11111222' 
LUMCON,ioos:station:LUMCON:105:1,2004-09-02T01:00:00Z,29.1874,-90.6654,1.0,3.1,260.0,4.1,'11111222,11111222,11111222' 
LUMCON,ioos:station:LUMCON:105:1,2004-09-02T02:00:00Z,29.1874,-90.6654,1.0,2.1,260.0,2.6,'11111222,11111222,11111222' 
LUMCON,ioos:station:LUMCON:105:1,2004-09-02T03:00:00Z,29.1874,-90.6654,1.0,1.0,290.0,1.5,'11111222,11111222,11111222' 
LUMCON,ioos:station:LUMCON:105:1,2004-09-02T04:00:00Z,29.1874,-90.6654,1.0,2.1,330.0,2.6,'11111222,11111222,11111222' 
LUMCON,ioos:station:LUMCON:105:1,2004-09-02T05:00:00Z,29.1874,-90.6654,1.0,2.1,340.0,2.6,'11111222,11111222,11111222' 
LUMCON,ioos:station:LUMCON:105:1,2004-09-02T06:00:00Z,29.1874,-90.6654,1.0,1.5,340.0,2.6,'11111222,11111222,11111222' 
LUMCON,ioos:station:LUMCON:105:1,2004-09-02T07:00:00Z,29.1874,-90.6654,1.0,2.6,0.0,3.1,'11111222,11111222,11111222' 
LUMCON,ioos:station:LUMCON:105:1,2004-09-02T08:00:00Z,29.1874,-90.6654,1.0,2.1,0.0,2.6,'11111222,11111222,11111222' 
LUMCON,ioos:station:LUMCON:105:1,2004-09-02T09:00:00Z,29.1874,-90.6654,1.0,2.6,340.0,3.1,'11111222,11111222,11111222' 
LUMCON,ioos:station:LUMCON:105:1,2004-09-02T10:00:00Z,29.1874,-90.6654,1.0,2.6,10.0,3.1,'11111222,11111222,11111222' 
LUMCON,ioos:station:LUMCON:105:1,2004-09-02T11:00:00Z,29.1874,-90.6654,1.0,2.6,0.0,3.1,'11111222,11111222,11111222' 
LUMCON,ioos:station:LUMCON:105:1,2004-09-02T12:00:00Z,29.1874,-90.6654,1.0,2.6,20.0,3.1,'11111222,11111222,11111222' 
LUMCON,ioos:station:LUMCON:105:1,2004-09-02T14:00:00Z,29.1874,-90.6654,1.0,3.6,50.0,4.6,'11111222,11111222,11111222' 
LUMCON,ioos:station:LUMCON:105:1,2004-09-02T15:00:00Z,29.1874,-90.6654,1.0,3.1,70.0,4.1,'11111222,11111222,11111222' 
LUMCON,ioos:station:LUMCON:105:1,2004-09-02T16:00:00Z,29.1874,-90.6654,1.0,2.6,60.0,3.6,'11111222,11111222,11111222' 
LUMCON,ioos:station:LUMCON:105:1,2004-09-02T17:00:00Z,29.1874,-90.6654,1.0,2.6,60.0,4.1,'11111222,11111222,11111222' 
LUMCON,ioos:station:LUMCON:105:1,2004-09-02T19:00:00Z,29.1874,-90.6654,1.0,2.6,130.0,3.6,'11111222,11111222,11111222' 
LUMCON,ioos:station:LUMCON:105:1,2004-09-02T20:00:00Z,29.1874,-90.6654,1.0,3.1,140.0,4.6,'11111222,11111222,11111222' 
LUMCON,ioos:station:LUMCON:105:1,2004-09-02T21:00:00Z,29.1874,-90.6654,1.0,3.6,160.0,5.7,'11111222,11111222,11111222' 
LUMCON,ioos:station:LUMCON:105:1,2004-09-02T22:00:00Z,29.1874,-90.6654,1.0,4.6,160.0,6.2,'11111222,11111222,11111222' 
LUMCON,ioos:station:LUMCON:105:1,2004-09-02T23:00:00Z,29.1874,-90.6654,1.0,4.1,140.0,5.7,'11111222,11111222,11111222' 
LUMCON,ioos:station:LUMCON:105:1,2004-09-03T00:00:00Z,29.1874,-90.6654,1.0,3.1,80.0,4.1,'11111222,11111222,11111222' 
LUMCON,ioos:station:LUMCON:105:1,2004-09-03T01:00:00Z,29.1874,-90.6654,1.0,3.6,80.0,5.1,'11111222,11111222,11111222' 
LUMCON,ioos:station:LUMCON:105:1,2004-09-03T03:00:00Z,29.1874,-90.6654,1.0,1.5,10.0,2.6,'11111222,11111222,11111222' 
LUMCON,ioos:station:LUMCON:105:1,2004-09-03T04:00:00Z,29.1874,-90.6654,1.0,3.1,50.0,4.1,'11111222,11111222,11111222' 
LUMCON,ioos:station:LUMCON:105:1,2004-09-03T05:00:00Z,29.1874,-90.6654,1.0,4.1,50.0,4.6,'11111222,11111222,11111222' 
LUMCON,ioos:station:LUMCON:105:1,2004-09-03T06:00:00Z,29.1874,-90.6654,1.0,2.6,80.0,3.6,'11111222,11111222,11111222' 
LUMCON,ioos:station:LUMCON:105:1,2004-09-03T07:00:00Z,29.1874,-90.6654,1.0,3.1,90.0,3.6,'11111222,11111222,11111222' 
LUMCON,ioos:station:LUMCON:105:1,2004-09-03T08:00:00Z,29.1874,-90.6654,1.0,3.6,80.0,4.6,'11111222,11111222,11111222' 
LUMCON,ioos:station:LUMCON:105:1,2004-09-03T09:00:00Z,29.1874,-90.6654,1.0,4.6,80.0,5.7,'11111222,11111222,11111222' 
LUMCON,ioos:station:LUMCON:105:1,2004-09-03T10:00:00Z,29.1874,-90.6654,1.0,5.1,80.0,6.2,'11111222,11111222,11111222' 
LUMCON,ioos:station:LUMCON:105:1,2004-09-03T11:00:00Z,29.1874,-90.6654,1.0,4.1,90.0,5.1,'11111222,11111222,11111222' 
LUMCON,ioos:station:LUMCON:105:1,2004-09-03T12:00:00Z,29.1874,-90.6654,1.0,5.1,100.0,6.2,'11111222,11111222,11111222' 
LUMCON,ioos:station:LUMCON:105:1,2004-09-03T13:00:00Z,29.1874,-90.6654,1.0,4.6,90.0,5.7,'11111222,11111222,11111222' 
LUMCON,ioos:station:LUMCON:105:1,2004-09-03T14:00:00Z,29.1874,-90.6654,1.0,5.1,70.0,6.2,'11111222,11111222,11111222' 
LUMCON,ioos:station:LUMCON:105:1,2004-09-03T15:00:00Z,29.1874,-90.6654,1.0,4.6,80.0,6.2,'11111222,11111222,11111222' 
LUMCON,ioos:station:LUMCON:105:1,2004-09-03T16:00:00Z,29.1874,-90.6654,1.0,4.6,90.0,5.7,'11111222,11111222,11111222' 
LUMCON,ioos:station:LUMCON:105:1,2004-09-03T17:00:00Z,29.1874,-90.6654,1.0,5.1,100.0,6.2,'11111222,11111222,11111222' 
LUMCON,ioos:station:LUMCON:105:1,2004-09-03T18:00:00Z,29.1874,-90.6654,1.0,4.1,110.0,5.7,'11111222,11111222,11111222' 
LUMCON,ioos:station:LUMCON:105:1,2004-09-03T19:00:00Z,29.1874,-90.6654,1.0,6.2,130.0,8.2,'11111222,11111222,11111222' 
LUMCON,ioos:station:LUMCON:105:1,2004-09-03T20:00:00Z,29.1874,-90.6654,1.0,6.2,160.0,7.2,'11111222,11111222,11111222' 
LUMCON,ioos:station:LUMCON:105:1,2004-09-03T21:00:00Z,29.1874,-90.6654,1.0,3.6,170.0,4.6,'11111222,11111222,11111222' 
LUMCON,ioos:station:LUMCON:105:1,2004-09-03T22:00:00Z,29.1874,-90.6654,1.0,2.1,160.0,3.1,'11111222,11111222,11111222' 
LUMCON,ioos:station:LUMCON:105:1,2004-09-03T23:00:00Z,29.1874,-90.6654,1.0,8.2,30.0,9.8,'11111222,11111222,11111222' 
LUMCON,ioos:station:LUMCON:105:1,2004-09-04T01:00:00Z,29.1874,-90.6654,1.0,6.7,90.0,8.2,'11111222,11111222,11111222' 
LUMCON,ioos:station:LUMCON:105:1,2004-09-04T03:00:00Z,29.1874,-90.6654,1.0,6.2,100.0,7.2,'11111222,11111222,11111222' 
LUMCON,ioos:station:LUMCON:105:1,2004-09-04T04:00:00Z,29.1874,-90.6654,1.0,4.1,120.0,4.6,'11111222,11111222,11111222' 
LUMCON,ioos:station:LUMCON:105:1,2004-09-04T05:00:00Z,29.1874,-90.6654,1.0,5.1,130.0,6.7,'11111222,11111222,11111222' 
LUMCON,ioos:station:LUMCON:105:1,2004-09-04T06:00:00Z,29.1874,-90.6654,1.0,6.2,110.0,7.7,'11111222,11111222,11111222' 
LUMCON,ioos:station:LUMCON:105:1,2004-09-04T08:00:00Z,29.1874,-90.6654,1.0,4.1,100.0,5.1,'11111222,11111222,11111222' 
LUMCON,ioos:station:LUMCON:105:1,2004-09-04T09:00:00Z,29.1874,-90.6654,1.0,1.5,100.0,2.6,'11111222,11111222,11111222' 
LUMCON,ioos:station:LUMCON:105:1,2004-09-04T10:00:00Z,29.1874,-90.6654,1.0,5.1,0.0,6.7,'11111222,11111222,11111222' 
LUMCON,ioos:station:LUMCON:105:1,2004-09-04T11:00:00Z,29.1874,-90.6654,1.0,5.7,80.0,7.2,'11111222,11111222,11111222' 
LUMCON,ioos:station:LUMCON:105:1,2004-09-04T12:00:00Z,29.1874,-90.6654,1.0,5.1,80.0,6.2,'11111222,11111222,11111222' 
LUMCON,ioos:station:LUMCON:105:1,2004-09-04T13:00:00Z,29.1874,-90.6654,1.0,4.6,100.0,5.7,'11111222,11111222,11111222' 
LUMCON,ioos:station:LUMCON:105:1,2004-09-04T14:00:00Z,29.1874,-90.6654,1.0,3.6,80.0,4.1,'11111222,11111222,11111222' 
LUMCON,ioos:station:LUMCON:105:1,2004-09-04T15:00:00Z,29.1874,-90.6654,1.0,3.6,70.0,4.6,'11111222,11111222,11111222' 
LUMCON,ioos:station:LUMCON:105:1,2004-09-04T16:00:00Z,29.1874,-90.6654,1.0,5.1,80.0,6.2,'11111222,11111222,11111222' 
LUMCON,ioos:station:LUMCON:105:1,2004-09-04T17:00:00Z,29.1874,-90.6654,1.0,5.1,100.0,6.7,'11111222,11111222,11111222' 
LUMCON,ioos:station:LUMCON:105:1,2004-09-04T18:00:00Z,29.1874,-90.6654,1.0,4.1,110.0,5.1,'11111222,11111222,11111222' 
LUMCON,ioos:station:LUMCON:105:1,2004-09-04T19:00:00Z,29.1874,-90.6654,1.0,4.6,110.0,5.7,'11111222,11111222,11111222' 
LUMCON,ioos:station:LUMCON:105:1,2004-09-04T20:00:00Z,29.1874,-90.6654,1.0,3.1,120.0,3.6,'11111222,11111222,11111222' 
LUMCON,ioos:station:LUMCON:105:1,2004-09-04T21:00:00Z,29.1874,-90.6654,1.0,2.6,90.0,3.6,'11111222,11111222,11111222' 
LUMCON,ioos:station:LUMCON:105:1,2004-09-04T22:00:00Z,29.1874,-90.6654,1.0,1.5,40.0,2.6,'11111222,11111222,11111222' 
LUMCON,ioos:station:LUMCON:105:1,2004-09-04T23:00:00Z,29.1874,-90.6654,1.0,7.7,100.0,9.8,'11111222,11111222,11111222' 
LUMCON,ioos:station:LUMCON:105:1,2004-09-05T00:00:00Z,29.1874,-90.6654,1.0,1.0,90.0,1.5,'11111222,11111222,11111222' 
LUMCON,ioos:station:LUMCON:105:1,2004-09-05T01:00:00Z,29.1874,-90.6654,1.0,2.6,50.0,3.1,'11111222,11111222,11111222' 
LUMCON,ioos:station:LUMCON:105:1,2004-09-05T02:00:00Z,29.1874,-90.6654,1.0,2.6,50.0,3.1,'11111222,11111222,11111222' 
LUMCON,ioos:station:LUMCON:105:1,2004-09-05T03:00:00Z,29.1874,-90.6654,1.0,3.1,20.0,3.6,'11111222,11111222,11111222' 
LUMCON,ioos:station:LUMCON:105:1,2004-09-05T04:00:00Z,29.1874,-90.6654,1.0,3.6,30.0,4.1,'11111222,11111222,11111222' 
LUMCON,ioos:station:LUMCON:105:1,2004-09-05T05:00:00Z,29.1874,-90.6654,1.0,3.1,30.0,4.1,'11111222,11111222,11111222' 
LUMCON,ioos:station:LUMCON:105:1,2004-09-05T06:00:00Z,29.1874,-90.6654,1.0,3.1,40.0,4.1,'11111222,11111222,11111222' 
LUMCON,ioos:station:LUMCON:105:1,2004-09-05T07:00:00Z,29.1874,-90.6654,1.0,4.1,40.0,4.6,'11111222,11111222,11111222' 
LUMCON,ioos:station:LUMCON:105:1,2004-09-05T09:00:00Z,29.1874,-90.6654,1.0,3.6,20.0,4.1,'11111222,11111222,11111222' 
LUMCON,ioos:station:LUMCON:105:1,2004-09-05T10:00:00Z,29.1874,-90.6654,1.0,4.6,20.0,5.7,'11111222,11111222,11111222' 
LUMCON,ioos:station:LUMCON:105:1,2004-09-05T11:00:00Z,29.1874,-90.6654,1.0,4.6,30.0,5.7,'11111222,11111222,11111222' 
LUMCON,ioos:station:LUMCON:105:1,2004-09-05T12:00:00Z,29.1874,-90.6654,1.0,5.1,30.0,6.2,'11111222,11111222,11111222' 
LUMCON,ioos:station:LUMCON:105:1,2004-09-05T13:00:00Z,29.1874,-90.6654,1.0,5.7,50.0,7.2,'11111222,11111222,11111222' 
LUMCON,ioos:station:LUMCON:105:1,2004-09-05T14:00:00Z,29.1874,-90.6654,1.0,5.7,50.0,6.7,'11111222,11111222,11111222' 
LUMCON,ioos:station:LUMCON:105:1,2004-09-05T15:00:00Z,29.1874,-90.6654,1.0,4.6,50.0,5.1,'11111222,11111222,11111222' 
LUMCON,ioos:station:LUMCON:105:1,2004-09-05T16:00:00Z,29.1874,-90.6654,1.0,4.6,70.0,5.7,'11111222,11111222,11111222' 
LUMCON,ioos:station:LUMCON:105:1,2004-09-05T17:00:00Z,29.1874,-90.6654,1.0,4.6,60.0,6.2,'11111222,11111222,11111222' 
LUMCON,ioos:station:LUMCON:105:1,2004-09-05T18:00:00Z,29.1874,-90.6654,1.0,4.6,40.0,6.2,'11111222,11111222,11111222' 
LUMCON,ioos:station:LUMCON:105:1,2004-09-05T19:00:00Z,29.1874,-90.6654,1.0,4.6,50.0,6.2,'11111222,11111222,11111222' 
LUMCON,ioos:station:LUMCON:105:1,2004-09-05T21:00:00Z,29.1874,-90.6654,1.0,5.1,70.0,6.2,'11111222,11111222,11111222' 
LUMCON,ioos:station:LUMCON:105:1,2004-09-05T22:00:00Z,29.1874,-90.6654,1.0,3.1,80.0,5.1,'11111222,11111222,11111222' 
LUMCON,ioos:station:LUMCON:105:1,2004-09-05T23:00:00Z,29.1874,-90.6654,1.0,3.1,50.0,4.6,'11111222,11111222,11111222' 
LUMCON,ioos:station:LUMCON:105:1,2004-09-06T00:00:00Z,29.1874,-90.6654,1.0,4.1,40.0,5.1,'11111222,11111222,11111222' 
LUMCON,ioos:station:LUMCON:105:1,2004-09-06T01:00:00Z,29.1874,-90.6654,1.0,4.6,30.0,5.7,'11111222,11111222,11111222' 
LUMCON,ioos:station:LUMCON:105:1,2004-09-06T02:00:00Z,29.1874,-90.6654,1.0,4.1,30.0,5.1,'11111222,11111222,11111222' 
LUMCON,ioos:station:LUMCON:105:1,2004-09-06T03:00:00Z,29.1874,-90.6654,1.0,3.1,0.0,4.1,'11111222,11111222,11111222' 
LUMCON,ioos:station:LUMCON:105:1,2004-09-06T04:00:00Z,29.1874,-90.6654,1.0,3.6,360.0,4.1,'11111222,11144222,11111222' 
LUMCON,ioos:station:LUMCON:105:1,2004-09-06T05:00:00Z,29.1874,-90.6654,1.0,4.1,350.0,5.1,'11111222,11111222,11111222' 
LUMCON,ioos:station:LUMCON:105:1,2004-09-06T06:00:00Z,29.1874,-90.6654,1.0,4.1,0.0,5.1,'11111222,11111222,11111222' 
LUMCON,ioos:station:LUMCON:105:1,2004-09-06T07:00:00Z,29.1874,-90.6654,1.0,4.1,20.0,5.1,'11111222,11111222,11111222' 
LUMCON,ioos:station:LUMCON:105:1,2004-09-06T08:00:00Z,29.1874,-90.6654,1.0,4.1,10.0,5.1,'11111222,11111222,11111222' 
LUMCON,ioos:station:LUMCON:105:1,2004-09-06T11:00:00Z,29.1874,-90.6654,1.0,5.1,360.0,5.7,'11111222,11144222,11111222' 
LUMCON,ioos:station:LUMCON:105:1,2004-09-06T12:00:00Z,29.1874,-90.6654,1.0,4.1,0.0,5.1,'11111222,11111222,11111222' 
LUMCON,ioos:station:LUMCON:105:1,2004-09-06T13:00:00Z,29.1874,-90.6654,1.0,4.6,360.0,5.1,'11111222,11144222,11111222' 
LUMCON,ioos:station:LUMCON:105:1,2004-09-06T14:00:00Z,29.1874,-90.6654,1.0,4.6,360.0,5.7,'11111222,11144222,11111222' 
LUMCON,ioos:station:LUMCON:105:1,2004-09-06T15:00:00Z,29.1874,-90.6654,1.0,4.6,20.0,5.7,'11111222,11111222,11111222' 
LUMCON,ioos:station:LUMCON:105:1,2004-09-06T16:00:00Z,29.1874,-90.6654,1.0,5.1,20.0,7.2,'11111222,11111222,11111222' 
LUMCON,ioos:station:LUMCON:105:1,2004-09-06T17:00:00Z,29.1874,-90.6654,1.0,5.7,0.0,7.7,'11111222,11111222,11111222' 
LUMCON,ioos:station:LUMCON:105:1,2004-09-06T18:00:00Z,29.1874,-90.6654,1.0,7.2,350.0,8.8,'11111222,11111222,11111222' 
LUMCON,ioos:station:LUMCON:105:1,2004-09-06T19:00:00Z,29.1874,-90.6654,1.0,6.7,350.0,8.8,'11111222,11111222,11111222' 
LUMCON,ioos:station:LUMCON:105:1,2004-09-06T21:00:00Z,29.1874,-90.6654,1.0,7.2,350.0,9.8,'11111222,11111222,11111222' 
LUMCON,ioos:station:LUMCON:105:1,2004-09-06T22:00:00Z,29.1874,-90.6654,1.0,7.2,350.0,9.3,'11111222,11111222,11111222' 
LUMCON,ioos:station:LUMCON:105:1,2004-09-07T00:00:00Z,29.1874,-90.6654,1.0,6.2,340.0,7.2,'11111222,11111222,11111222' 
LUMCON,ioos:station:LUMCON:105:1,2004-09-07T01:00:00Z,29.1874,-90.6654,1.0,5.1,320.0,5.7,'11111222,11111222,11111222' 
LUMCON,ioos:station:LUMCON:105:1,2004-09-07T02:00:00Z,29.1874,-90.6654,1.0,4.6,330.0,6.2,'11111222,11111222,11111222' 
LUMCON,ioos:station:LUMCON:105:1,2004-09-07T03:00:00Z,29.1874,-90.6654,1.0,6.7,350.0,7.7,'11111222,11111222,11111222' 
LUMCON,ioos:station:LUMCON:105:1,2004-09-07T04:00:00Z,29.1874,-90.6654,1.0,6.2,360.0,7.2,'11111222,11144222,11111222' 
LUMCON,ioos:station:LUMCON:105:1,2004-09-07T05:00:00Z,29.1874,-90.6654,1.0,5.7,360.0,6.7,'11111222,11144222,11111222' 
LUMCON,ioos:station:LUMCON:105:1,2004-09-07T06:00:00Z,29.1874,-90.6654,1.0,5.1,340.0,6.2,'11111222,11111222,11111222' 
LUMCON,ioos:station:LUMCON:105:1,2004-09-07T07:00:00Z,29.1874,-90.6654,1.0,5.1,360.0,5.7,'11111222,11144222,11111222' 
LUMCON,ioos:station:LUMCON:105:1,2004-09-07T08:00:00Z,29.1874,-90.6654,1.0,5.1,360.0,6.2,'11111222,11144222,11111222' 
LUMCON,ioos:station:LUMCON:105:1,2004-09-07T09:00:00Z,29.1874,-90.6654,1.0,5.1,340.0,6.2,'11111222,11111222,11111222' 
LUMCON,ioos:station:LUMCON:105:1,2004-09-07T10:00:00Z,29.1874,-90.6654,1.0,4.6,350.0,5.7,'11111222,11111222,11111222' 
LUMCON,ioos:station:LUMCON:105:1,2004-09-07T11:00:00Z,29.1874,-90.6654,1.0,6.2,350.0,7.2,'11111222,11111222,11111222' 
LUMCON,ioos:station:LUMCON:105:1,2004-09-07T12:00:00Z,29.1874,-90.6654,1.0,6.2,350.0,7.7,'11111222,11111222,11111222' 
LUMCON,ioos:station:LUMCON:105:1,2004-09-07T14:00:00Z,29.1874,-90.6654,1.0,5.7,350.0,6.7,'11111222,11111222,11111222' 
LUMCON,ioos:station:LUMCON:105:1,2004-09-07T15:00:00Z,29.1874,-90.6654,1.0,3.6,330.0,4.1,'11111222,11111222,11111222' 
LUMCON,ioos:station:LUMCON:105:1,2004-09-07T16:00:00Z,29.1874,-90.6654,1.0,3.1,340.0,3.6,'11111222,11111222,11111222' 
LUMCON,ioos:station:LUMCON:105:1,2004-09-07T17:00:00Z,29.1874,-90.6654,1.0,2.1,300.0,3.6,'11111222,11111222,11111222' 
LUMCON,ioos:station:LUMCON:105:1,2004-09-07T18:00:00Z,29.1874,-90.6654,1.0,4.1,330.0,6.7,'11111222,11111222,11111222' 
LUMCON,ioos:station:LUMCON:105:1,2004-09-07T19:00:00Z,29.1874,-90.6654,1.0,3.1,330.0,4.6,'11111222,11111222,11111222' 
LUMCON,ioos:station:LUMCON:105:1,2004-09-07T20:00:00Z,29.1874,-90.6654,1.0,4.6,320.0,6.7,'11111222,11111222,11111222' 
LUMCON,ioos:station:LUMCON:105:1,2004-09-07T21:00:00Z,29.1874,-90.6654,1.0,4.1,320.0,5.7,'11111222,11111222,11111222' 
LUMCON,ioos:station:LUMCON:105:1,2004-09-07T22:00:00Z,29.1874,-90.6654,1.0,4.6,320.0,6.2,'11111222,11111222,11111222' 
LUMCON,ioos:station:LUMCON:105:1,2004-09-07T23:00:00Z,29.1874,-90.6654,1.0,5.1,320.0,6.7,'11111222,11111222,11111222' 
LUMCON,ioos:station:LUMCON:105:1,2004-09-08T00:00:00Z,29.1874,-90.6654,1.0,4.6,310.0,6.2,'11111222,11111222,11111222' 
LUMCON,ioos:station:LUMCON:105:1,2004-09-08T01:00:00Z,29.1874,-90.6654,1.0,4.1,330.0,5.1,'11111222,11111222,11111222' 
LUMCON,ioos:station:LUMCON:105:1,2004-09-08T02:00:00Z,29.1874,-90.6654,1.0,5.1,340.0,6.2,'11111222,11111222,11111222' 
LUMCON,ioos:station:LUMCON:105:1,2004-09-08T03:00:00Z,29.1874,-90.6654,1.0,5.7,350.0,6.7,'11111222,11111222,11111222' 
LUMCON,ioos:station:LUMCON:105:1,2004-09-08T05:00:00Z,29.1874,-90.6654,1.0,6.7,20.0,8.2,'11111222,11111222,11111222' 
LUMCON,ioos:station:LUMCON:105:1,2004-09-08T06:00:00Z,29.1874,-90.6654,1.0,6.2,20.0,7.7,'11111222,11111222,11111222' 
LUMCON,ioos:station:LUMCON:105:1,2004-09-08T07:00:00Z,29.1874,-90.6654,1.0,7.7,20.0,9.8,'11111222,11111222,11111222' 
LUMCON,ioos:station:LUMCON:105:1,2004-09-08T08:00:00Z,29.1874,-90.6654,1.0,6.7,20.0,8.2,'11111222,11111222,11111222' 
LUMCON,ioos:station:LUMCON:105:1,2004-09-08T09:00:00Z,29.1874,-90.6654,1.0,6.2,20.0,7.7,'11111222,11111222,11111222' 
LUMCON,ioos:station:LUMCON:105:1,2004-09-08T10:00:00Z,29.1874,-90.6654,1.0,6.2,30.0,7.7,'11111222,11111222,11111222' 
LUMCON,ioos:station:LUMCON:105:1,2004-09-08T11:00:00Z,29.1874,-90.6654,1.0,4.6,30.0,6.2,'11111222,11111222,11111222' 
LUMCON,ioos:station:LUMCON:105:1,2004-09-08T12:00:00Z,29.1874,-90.6654,1.0,5.1,30.0,6.2,'11111222,11111222,11111222' 
LUMCON,ioos:station:LUMCON:105:1,2004-09-08T13:00:00Z,29.1874,-90.6654,1.0,4.1,30.0,5.1,'11111222,11111222,11111222' 
LUMCON,ioos:station:LUMCON:105:1,2004-09-08T14:00:00Z,29.1874,-90.6654,1.0,4.1,40.0,5.7,'11111222,11111222,11111222' 
LUMCON,ioos:station:LUMCON:105:1,2004-09-08T16:00:00Z,29.1874,-90.6654,1.0,4.1,60.0,5.1,'11111222,11111222,11111222' 
LUMCON,ioos:station:LUMCON:105:1,2004-09-08T17:00:00Z,29.1874,-90.6654,1.0,2.6,90.0,3.6,'11111222,11111222,11111222' 
LUMCON,ioos:station:LUMCON:105:1,2004-09-08T18:00:00Z,29.1874,-90.6654,1.0,2.1,100.0,3.1,'11111222,11111222,11111222' 
LUMCON,ioos:station:LUMCON:105:1,2004-09-08T20:00:00Z,29.1874,-90.6654,1.0,2.6,150.0,3.1,'11111222,11111222,11111222' 
LUMCON,ioos:station:LUMCON:105:1,2004-09-08T21:00:00Z,29.1874,-90.6654,1.0,2.1,180.0,3.1,'11111222,11111222,11111222' 
LUMCON,ioos:station:LUMCON:105:1,2004-09-08T22:00:00Z,29.1874,-90.6654,1.0,2.6,200.0,3.6,'11111222,11111222,11111222' 
LUMCON,ioos:station:LUMCON:105:1,2004-09-08T23:00:00Z,29.1874,-90.6654,1.0,2.6,210.0,3.1,'11111222,11111222,11111222' 
LUMCON,ioos:station:LUMCON:105:1,2004-09-09T00:00:00Z,29.1874,-90.6654,1.0,2.6,220.0,3.6,'11111222,11111222,11111222' 
LUMCON,ioos:station:LUMCON:105:1,2004-09-09T01:00:00Z,29.1874,-90.6654,1.0,2.6,240.0,3.6,'11111222,11111222,11111222' 
LUMCON,ioos:station:LUMCON:105:1,2004-09-09T02:00:00Z,29.1874,-90.6654,1.0,3.1,260.0,3.6,'11111222,11111222,11111222' 
LUMCON,ioos:station:LUMCON:105:1,2004-09-09T03:00:00Z,29.1874,-90.6654,1.0,2.1,260.0,3.1,'11111222,11111222,11111222' 
LUMCON,ioos:station:LUMCON:105:1,2004-09-09T04:00:00Z,29.1874,-90.6654,1.0,1.5,270.0,2.1,'11111222,11111222,11111222' 
LUMCON,ioos:station:LUMCON:105:1,2004-09-09T05:00:00Z,29.1874,-90.6654,1.0,1.5,280.0,2.6,'11111222,11111222,11111222' 
LUMCON,ioos:station:LUMCON:105:1,2004-09-09T06:00:00Z,29.1874,-90.6654,1.0,2.6,320.0,3.1,'11111222,11111222,11111222' 
LUMCON,ioos:station:LUMCON:105:1,2004-09-09T07:00:00Z,29.1874,-90.6654,1.0,4.1,20.0,5.7,'11111222,11111222,11111222' 
LUMCON,ioos:station:LUMCON:105:1,2004-09-09T08:00:00Z,29.1874,-90.6654,1.0,4.6,20.0,5.7,'11111222,11111222,11111222' 
LUMCON,ioos:station:LUMCON:105:1,2004-09-09T10:00:00Z,29.1874,-90.6654,1.0,6.7,50.0,7.7,'11111222,11111222,11111222' 
LUMCON,ioos:station:LUMCON:105:1,2004-09-09T11:00:00Z,29.1874,-90.6654,1.0,6.2,50.0,6.7,'11111222,11111222,11111222' 
LUMCON,ioos:station:LUMCON:105:1,2004-09-09T13:00:00Z,29.1874,-90.6654,1.0,5.1,60.0,6.2,'11111222,11111222,11111222' 
LUMCON,ioos:station:LUMCON:105:1,2004-09-09T15:00:00Z,29.1874,-90.6654,1.0,4.1,70.0,5.1,'11111222,11111222,11111222' 
LUMCON,ioos:station:LUMCON:105:1,2004-09-09T16:00:00Z,29.1874,-90.6654,1.0,4.6,80.0,5.7,'11111222,11111222,11111222' 
LUMCON,ioos:station:LUMCON:105:1,2004-09-09T17:00:00Z,29.1874,-90.6654,1.0,3.6,80.0,4.6,'11111222,11111222,11111222' 
LUMCON,ioos:station:LUMCON:105:1,2004-09-09T18:00:00Z,29.1874,-90.6654,1.0,3.1,90.0,4.1,'11111222,11111222,11111222' 
LUMCON,ioos:station:LUMCON:105:1,2004-09-09T19:00:00Z,29.1874,-90.6654,1.0,2.1,110.0,2.6,'11111222,11111222,11111222' 
LUMCON,ioos:station:LUMCON:105:1,2004-09-09T20:00:00Z,29.1874,-90.6654,1.0,3.6,150.0,5.1,'11111222,11111222,11111222' 
LUMCON,ioos:station:LUMCON:105:1,2004-09-09T21:00:00Z,29.1874,-90.6654,1.0,4.1,150.0,5.1,'11111222,11111222,11111222' 
LUMCON,ioos:station:LUMCON:105:1,2004-09-09T22:00:00Z,29.1874,-90.6654,1.0,12.4,60.0,15.4,'11111222,11111222,11111222' 
LUMCON,ioos:station:LUMCON:105:1,2004-09-09T23:00:00Z,29.1874,-90.6654,1.0,8.2,140.0,10.3,'11111222,11111222,11111222' 
LUMCON,ioos:station:LUMCON:105:1,2004-09-10T00:00:00Z,29.1874,-90.6654,1.0,1.5,80.0,2.6,'11111222,11111222,11111222' 
LUMCON,ioos:station:LUMCON:105:1,2004-09-10T01:00:00Z,29.1874,-90.6654,1.0,4.1,310.0,5.7,'11111222,11111222,11111222' 
LUMCON,ioos:station:LUMCON:105:1,2004-09-10T02:00:00Z,29.1874,-90.6654,1.0,1.5,350.0,2.6,'11111222,11111222,11111222' 
LUMCON,ioos:station:LUMCON:105:1,2004-09-10T03:00:00Z,29.1874,-90.6654,1.0,4.6,360.0,5.7,'11111222,11144222,11111222' 
LUMCON,ioos:station:LUMCON:105:1,2004-09-10T04:00:00Z,29.1874,-90.6654,1.0,2.6,40.0,3.1,'11111222,11111222,11111222' 